This demonstration page uses our WeatherBlox Daily Observations layout. Learn more.

Left ArrowRight Arrow

Hourly Observations for June 30, 2021

Temp ( °F °C ) Dew Point ( °F °C ) Humidity (%) Winds ( mph kmh ) Pressure ( in mb ) Visibility ( mi km ) Precip ( " mm )
12:15 am 00:15 Clear 67 19.7 64 17.8 89 89 ESE 5 7 30.12 1020 10 16 N/A
12:35 am 00:35 Clear 66 19.1 64 17.7 92 92 N N/A 30.12 1020 10 16 N/A
12:55 am 00:55 Clear 66 19.1 64 17.7 92 92 ESE 5 7 30.12 1020 10 16 N/A
1:15 am 01:15 Clear 66 19.1 64 17.5 91 91 ESE 3 6 30.12 1020 10 16 N/A
1:35 am 01:35 Clear 65 18.6 63 17.3 92 92 ESE 3 6 30.12 1020 10 16 N/A
1:55 am 01:55 Clear 66 19 63 17.2 89 89 N N/A 30.12 1020 10 16 N/A
2:15 am 02:15 Clear 65 18.6 63 17.2 92 92 N N/A 30.12 1020 7 11 N/A
2:35 am 02:35 Clear 66 18.7 63 17.3 92 92 N N/A 30.11 1020 7 11 N/A
2:55 am 02:55 Clear 64 18 62 16.7 92 92 N N/A 30.10 1019 7 11 N/A
3:15 am 03:15 Clear 65 18.2 63 17.1 93 93 N N/A 30.10 1019 7 11 N/A
3:35 am 03:35 Clear with Mist and Fog 64 17.5 62 16.7 95 95 N N/A 30.11 1020 5 8 N/A
3:55 am 03:55 Clear with Mist and Fog 63 17.2 62 16.5 96 96 N N/A 30.10 1019 5 8 N/A
4:15 am 04:15 Clear with Mist and Fog 62 16.7 61 16.1 96 96 N N/A 30.10 1019 4 6 N/A
4:35 am 04:35 Clear 63 17.2 62 16.6 96 96 N N/A 30.10 1019 7 11 N/A
4:55 am 04:55 Clear with Mist and Fog 63 17.2 62 16.4 95 95 N N/A 30.10 1019 5 8 N/A
5:15 am 05:15 Clear with Mist and Fog 63 17 62 16.4 96 96 N N/A 30.10 1019 4 6 N/A
5:35 am 05:35 Clear with Mist and Fog 61 16.1 60 15.5 96 96 N N/A 30.11 1020 3 5 N/A
5:55 am 05:55 Clear with Mist and Fog 61 16 60 15.5 97 97 N N/A 30.11 1020 3 5 N/A
6:15 am 06:15 Sunny with Mist and Fog 61 16 60 15.5 97 97 N N/A 30.12 1020 2 3 N/A
6:35 am 06:35 Mostly Cloudy with Mist and Fog 61 16.3 61 16 98 98 N N/A 30.12 1020 2 2 N/A
6:55 am 06:55 Sunny with Mist and Fog 62 16.8 62 16.5 98 98 N N/A 30.10 1019 2 3 N/A
7:15 am 07:15 Mostly Cloudy with Mist and Fog 63 17.3 62 16.9 98 98 N N/A 30.11 1020 2 3 N/A
7:35 am 07:35 Mostly Cloudy with Mist and Fog 64 17.8 64 17.5 98 98 N N/A 30.11 1019 2 2 N/A
7:55 am 07:55 Sunny with Mist and Fog 66 19.1 65 18.6 97 97 N N/A 30.09 1019 2 3 N/A
8:15 am 08:15 Sunny with Mist and Fog 67 19.6 66 18.9 96 96 N N/A 30.10 1019 2 3 N/A
8:35 am 08:35 Sunny with Mist and Fog 68 20 67 19.3 96 96 N N/A 30.09 1019 3 5 N/A
8:55 am 08:55 Sunny with Mist and Fog 69 20.6 67 19.7 95 95 N N/A 30.09 1019 3 5 N/A
9:15 am 09:15 Partly Cloudy with Mist and Fog 70 21 68 20.1 95 95 N N/A 30.10 1019 3 5 N/A
9:35 am 09:35 Partly Cloudy with Mist and Fog 71 21.4 68 20.1 92 92 N N/A 30.10 1019 5 8 N/A
9:55 am 09:55 Sunny 72 22.2 69 20.3 89 89 NE 3 6 30.09 1019 7 11 N/A
10:15 am 10:15 Sunny 73 22.5 68 20.1 86 86 N N/A 30.09 1019 10 16 N/A
10:35 am 10:35 Sunny 73 22.9 68 20.1 84 84 N N/A 30.08 1019 10 16 N/A
10:55 am 10:55 Partly Cloudy 73 23 68 20 83 83 N N/A 30.08 1019 10 16 N/A
11:15 am 11:15 Partly Cloudy 74 23.4 68 20.2 82 82 E 3 6 30.08 1019 10 16 N/A
11:35 am 11:35 Sunny 74 23.5 68 20.2 82 82 ENE 5 7 30.08 1019 10 16 N/A
11:55 am 11:55 Sunny 75 24 68 19.8 77 77 E 3 6 30.07 1018 10 16 N/A
12:15 pm 12:15 Sunny 76 24.3 68 20 77 77 ESE 6 9 30.07 1018 10 16 N/A
12:35 pm 12:35 Sunny 76 24.5 68 19.9 76 76 ESE 6 9 30.06 1018 10 16 N/A
12:55 pm 12:55 Partly Cloudy 77 25.1 67 19.6 72 72 E 6 9 30.06 1018 10 16 N/A
1:15 pm 13:15 Mostly Cloudy 78 25.6 67 19.5 69 69 ESE 7 11 30.04 1017 10 16 N/A
1:35 pm 13:35 Mostly Cloudy 78 25.7 67 19.4 68 68 E 7 11 30.03 1017 10 16 N/A
1:55 pm 13:55 Mostly Cloudy 78 25.7 65 18.5 65 65 SSE 5 7 30.03 1017 10 16 N/A
2:15 pm 14:15 Mostly Cloudy 79 26.1 64 17.8 60 60 ESE 3 6 30.03 1017 10 16 N/A
2:35 pm 14:35 Mostly Cloudy 80 26.9 64 17.7 57 57 E 3 6 30.01 1016 10 16 N/A
2:55 pm 14:55 Mostly Cloudy 80 26.5 63 17.3 57 57 SSE 6 9 30.01 1016 10 16 N/A
3:15 pm 15:15 Partly Cloudy 81 27 64 17.6 56 56 ESE 5 7 30.00 1016 10 16 N/A
3:35 pm 15:35 Partly Cloudy 80 26.8 63 17.2 56 56 E 5 7 30.00 1016 10 16 N/A
3:55 pm 15:55 Sunny 81 27.1 62 16.7 53 53 SE 3 6 30.00 1016 10 16 N/A
4:15 pm 16:15 Sunny 81 27.3 62 16.4 51 51 E 6 9 30.00 1016 10 16 N/A
4:35 pm 16:35 Sunny 81 27 60 15.5 49 49 SE 6 9 29.99 1016 10 16 N/A
4:55 pm 16:55 Sunny 79 26.2 61 16.2 54 54 ENE 7 11 30.00 1016 10 16 N/A
5:15 pm 17:15 Partly Cloudy 79 26.1 64 17.6 60 60 E 5 7 30.00 1016 10 16 N/A
5:35 pm 17:35 Mostly Cloudy 79 26.2 64 17.7 60 60 N N/A 29.99 1015 10 16 N/A
5:55 pm 17:55 Mostly Cloudy 80 26.4 63 17.1 57 57 E 6 9 29.98 1015 10 16 N/A
6:15 pm 18:15 Cloudy 79 26.1 62 16.4 55 55 E 3 6 29.99 1015 10 16 N/A
6:35 pm 18:35 Cloudy 79 26.2 63 17 57 57 E 5 7 29.98 1015 10 16 N/A
6:55 pm 18:55 Cloudy 79 26.3 62 16.9 56 56 E 5 7 29.97 1015 10 16 N/A
7:15 pm 19:15 Cloudy 79 26 62 16.6 56 56 E 5 7 29.97 1015 10 16 N/A
7:35 pm 19:35 Cloudy 78 25.8 64 17.8 61 61 N N/A 29.98 1015 10 16 N/A
7:55 pm 19:55 Cloudy 78 25.3 63 17.4 62 62 E 3 6 29.98 1015 10 16 N/A
8:15 pm 20:15 Partly Cloudy 77 25.1 64 18 65 65 N N/A 30.00 1016 10 16 N/A
8:35 pm 20:35 Sunny 76 24.6 65 18.6 69 69 E 3 6 29.99 1016 10 16 N/A
8:55 pm 20:55 Sunny 76 24.3 66 19 72 72 E 5 7 29.99 1016 10 16 N/A
9:15 pm 21:15 Partly Cloudy 75 23.9 65 18.6 72 72 N N/A 30.00 1016 10 16 N/A
9:35 pm 21:35 Partly Cloudy 74 23.1 67 19.6 81 81 ENE 6 9 30.01 1016 10 16 N/A
9:55 pm 21:55 Mostly Cloudy 73 22.9 67 19.7 82 82 ENE 7 11 30.01 1016 10 16 N/A
10:15 pm 22:15 Cloudy 73 23 65 18.3 75 75 E 5 7 30.01 1016 10 16 N/A
10:35 pm 22:35 Mostly Cloudy 73 22.5 66 18.9 80 80 E 6 9 30.03 1017 10 16 N/A
10:55 pm 22:55 Mostly Cloudy 73 22.5 66 18.8 80 80 E 5 7 30.03 1017 10 16 N/A
11:15 pm 23:15 Partly Cloudy 72 22.1 66 19.1 83 83 E 5 7 30.03 1017 10 16 N/A
11:35 pm 23:35 Cloudy 72 22 67 19.2 84 84 E 5 7 30.03 1017 10 16 N/A
11:55 pm 23:55 Mostly Cloudy 71 21.9 67 19.2 85 85 E 7 11 30.03 1017 10 16 N/A

Powered by AerisWeather